When you browse on this site, cookies collect data to enhance your experience and personalize the content and advertising you see.
Visit our Privacy Policy to learn more. By continuing to use the site, you agree to this use of cookies and data.
  • en Suisse
  • Liste des pays
  • À 7 jours
  • Température de l'eau
  • Carte météo
  • Widgets météo
  • user-avatar
    Se connecter

    Météo par heure à Qui Nhon

    Ce jour, 19 Septembre, Jeudi

    Heure Température Précipitation Vent Pression Humidité
    00:00 +27°C° 0.6 mm 2 m/s 755 mmHg 91%
    01:00 +26°C° 0 mm 2 m/s 755 mmHg 91%
    02:00 +26°C° 0.5 mm 2 m/s 755 mmHg 91%
    03:00 +26°C° 0.5 mm 2 m/s 755 mmHg 91%
    04:00 +26°C° 0.5 mm 2 m/s 755 mmHg 92%
    05:00 +26°C° 0.4 mm 2 m/s 755 mmHg 90%
    06:00 +27°C° 0.4 mm 2 m/s 755 mmHg 89%
    07:00 +27°C° 0 mm 1 m/s 756 mmHg 90%
    08:00 +28°C° 0.5 mm 1 m/s 756 mmHg 86%
    09:00 +29°C° 0.5 mm 1 m/s 756 mmHg 83%
    10:00 +29°C° 0.5 mm 1 m/s 756 mmHg 80%
    11:00 +30°C° 0.4 mm 1 m/s 756 mmHg 79%
    12:00 +30°C° 0.4 mm 1 m/s 755 mmHg 79%
    13:00 +29°C° 0.4 mm 0 m/s 754 mmHg 78%
    14:00 +30°C° 0.4 mm 1 m/s 754 mmHg 81%
    15:00 +30°C° 0.4 mm 1 m/s 754 mmHg 84%
    16:00 +29°C° 0.4 mm 1 m/s 754 mmHg 87%
    17:00 +29°C° 1.4 mm 1 m/s 754 mmHg 88%
    18:00 +28°C° 1.4 mm 1 m/s 755 mmHg 89%
    19:00 +28°C° 1.4 mm 1 m/s 755 mmHg 90%
    20:00 +27°C° 1.6 mm 1 m/s 756 mmHg 90%
    21:00 +27°C° 1.6 mm 1 m/s 756 mmHg 90%
    22:00 +27°C° 1.6 mm 1 m/s 757 mmHg 89%
    23:00 +27°C° 1.7 mm 2 m/s 756 mmHg 90%

    Demain, 20 Septembre, Vendredi

    Heure Température Précipitation Vent Pression Humidité
    00:00 +27°C° 1.7 mm 2 m/s 756 mmHg 91%
    01:00 +27°C° 1.7 mm 2 m/s 755 mmHg 92%
    02:00 +27°C° 0.9 mm 2 m/s 755 mmHg 93%
    03:00 +26°C° 0.9 mm 2 m/s 755 mmHg 93%
    04:00 +26°C° 0.9 mm 2 m/s 755 mmHg 93%
    05:00 +26°C° 0.1 mm 2 m/s 755 mmHg 92%
    06:00 +26°C° 0.1 mm 2 m/s 755 mmHg 92%
    07:00 +27°C° 0.1 mm 2 m/s 756 mmHg 91%
    08:00 +28°C° 0 mm 2 m/s 756 mmHg 85%
    09:00 +29°C° 0 mm 2 m/s 756 mmHg 78%
    10:00 +31°C° 0 mm 2 m/s 756 mmHg 72%
    11:00 +31°C° 0.5 mm 2 m/s 755 mmHg 74%
    12:00 +31°C° 0.5 mm 2 m/s 755 mmHg 75%
    13:00 +31°C° 0.5 mm 2 m/s 754 mmHg 76%
    14:00 +30°C° 1.2 mm 2 m/s 754 mmHg 79%
    15:00 +30°C° 1.2 mm 2 m/s 754 mmHg 82%
    16:00 +29°C° 1.2 mm 2 m/s 754 mmHg 86%
    17:00 +29°C° 1.3 mm 2 m/s 754 mmHg 87%
    18:00 +28°C° 1.3 mm 2 m/s 754 mmHg 88%
    19:00 +27°C° 1.3 mm 2 m/s 755 mmHg 89%
    20:00 +27°C° 0.9 mm 2 m/s 755 mmHg 89%
    21:00 +27°C° 0.9 mm 2 m/s 756 mmHg 90%
    22:00 +27°C° 0.9 mm 2 m/s 756 mmHg 90%
    23:00 +27°C° 0.1 mm 2 m/s 756 mmHg 90%

    Après-demain, 21 Septembre, Samedi

    Heure Température Précipitation Vent Pression Humidité
    00:00 +26°C° 0.1 mm 2 m/s 755 mmHg 91%
    01:00 +26°C° 0.1 mm 2 m/s 755 mmHg 91%
    02:00 +26°C° 0.1 mm 2 m/s 755 mmHg 92%
    03:00 +25°C° 0.1 mm 2 m/s 754 mmHg 92%
    04:00 +25°C° 0.1 mm 2 m/s 754 mmHg 93%
    05:00 +26°C° 0 mm 2 m/s 754 mmHg 92%
    06:00 +26°C° 0 mm 2 m/s 755 mmHg 90%
    07:00 +26°C° 0 mm 2 m/s 755 mmHg 89%
    08:00 +28°C° 0 mm 2 m/s 755 mmHg 80%
    09:00 +30°C° 0 mm 2 m/s 755 mmHg 72%
    10:00 +32°C° 0 mm 2 m/s 755 mmHg 63%
    11:00 +32°C° 0.2 mm 2 m/s 755 mmHg 65%
    12:00 +33°C° 0.2 mm 3 m/s 754 mmHg 67%
    13:00 +33°C° 0.2 mm 3 m/s 754 mmHg 70%
    14:00 +31°C° 0.9 mm 3 m/s 754 mmHg 75%
    15:00 +30°C° 0.9 mm 3 m/s 754 mmHg 80%
    16:00 +30°C° 0.9 mm 2 m/s 754 mmHg 85%
    17:00 +29°C° 1.8 mm 3 m/s 754 mmHg 87%
    18:00 +28°C° 1.8 mm 3 m/s 755 mmHg 88%
    19:00 +27°C° 1.8 mm 3 m/s 755 mmHg 90%
    20:00 +27°C° 0.5 mm 3 m/s 756 mmHg 90%
    21:00 +27°C° 0.5 mm 3 m/s 756 mmHg 89%
    22:00 +27°C° 0.5 mm 3 m/s 757 mmHg 89%
    23:00 +26°C° 0.1 mm 3 m/s 757 mmHg 89%

    22 Septembre, Dimanche

    Heure Température Précipitation Vent Pression Humidité
    00:00 +26°C° 0.1 mm 3 m/s 757 mmHg 89%
    01:00 +26°C° 0.1 mm 3 m/s 757 mmHg 89%
    02:00 +25°C° 0 mm 3 m/s 756 mmHg 90%
    03:00 +25°C° 0 mm 3 m/s 756 mmHg 91%
    04:00 +25°C° 0 mm 2 m/s 756 mmHg 91%
    05:00 +25°C° 0 mm 2 m/s 757 mmHg 91%
    06:00 +26°C° 0 mm 2 m/s 757 mmHg 90%
    07:00 +26°C° 0 mm 2 m/s 758 mmHg 89%
    08:00 +28°C° 0 mm 3 m/s 758 mmHg 81%
    09:00 +29°C° 0 mm 3 m/s 758 mmHg 73%
    10:00 +31°C° 0 mm 3 m/s 758 mmHg 64%
    11:00 +32°C° 0 mm 4 m/s 757 mmHg 61%
    12:00 +33°C° 0 mm 4 m/s 757 mmHg 59%
    13:00 +33°C° 0 mm 5 m/s 756 mmHg 56%
    14:00 +33°C° 0 mm 5 m/s 756 mmHg 58%
    15:00 +32°C° 0 mm 5 m/s 756 mmHg 61%
    16:00 +32°C° 0 mm 5 m/s 756 mmHg 63%
    17:00 +29°C° 0 mm 4 m/s 756 mmHg 69%
    18:00 +28°C° 0 mm 4 m/s 757 mmHg 75%
    19:00 +26°C° 0 mm 3 m/s 758 mmHg 81%
    20:00 +26°C° 0.1 mm 3 m/s 758 mmHg 82%
    21:00 +26°C° 0.1 mm 3 m/s 759 mmHg 83%
    22:00 +26°C° 0.1 mm 3 m/s 759 mmHg 83%
    23:00 +26°C° 0.1 mm 2 m/s 759 mmHg 85%

    23 Septembre, Lundi

    Heure Température Précipitation Vent Pression Humidité
    00:00 +25°C° 0.1 mm 2 m/s 758 mmHg 86%
    01:00 +25°C° 0.1 mm 2 m/s 758 mmHg 87%
    02:00 +25°C° 0.1 mm 2 m/s 758 mmHg 87%
    03:00 +25°C° 0.1 mm 2 m/s 758 mmHg 87%
    04:00 +25°C° 0.1 mm 2 m/s 758 mmHg 87%
    05:00 +25°C° 0 mm 3 m/s 758 mmHg 85%
    06:00 +26°C° 0 mm 3 m/s 758 mmHg 82%
    07:00 +27°C° 0 mm 3 m/s 759 mmHg 80%
    08:00 +28°C° 0.1 mm 3 m/s 759 mmHg 76%
    09:00 +30°C° 0.1 mm 4 m/s 759 mmHg 71%
    10:00 +32°C° 0.1 mm 4 m/s 759 mmHg 67%
    11:00 +30°C° 0.5 mm 4 m/s 758 mmHg 71%
    12:00 +30°C° 0.5 mm 4 m/s 758 mmHg 75%
    13:00 +30°C° 0.5 mm 4 m/s 757 mmHg 79%
    14:00 +29°C° 1.2 mm 4 m/s 757 mmHg 82%
    15:00 +29°C° 1.2 mm 5 m/s 757 mmHg 84%
    16:00 +28°C° 1.2 mm 5 m/s 757 mmHg 86%
    17:00 +28°C° 0.4 mm 4 m/s 757 mmHg 87%
    18:00 +27°C° 0.4 mm 4 m/s 758 mmHg 88%
    19:00 +26°C° 0.4 mm 4 m/s 758 mmHg 89%
    20:00 +26°C° 0.1 mm 4 m/s 759 mmHg 89%
    21:00 +26°C° 0.1 mm 4 m/s 759 mmHg 89%
    22:00 +26°C° 0.1 mm 3 m/s 759 mmHg 90%
    23:00 +26°C° 0.4 mm 3 m/s 759 mmHg 90%

    24 Septembre, Mardi

    Heure Température Précipitation Vent Pression Humidité
    00:00 +26°C° 0.4 mm 4 m/s 758 mmHg 91%
    01:00 +26°C° 0.4 mm 4 m/s 758 mmHg 92%
    02:00 +25°C° 0.5 mm 4 m/s 758 mmHg 92%
    03:00 +25°C° 0.5 mm 4 m/s 758 mmHg 93%
    04:00 +25°C° 0.5 mm 4 m/s 758 mmHg 94%
    05:00 +25°C° 0.3 mm 4 m/s 758 mmHg 92%
    06:00 +26°C° 0.3 mm 4 m/s 758 mmHg 91%
    07:00 +26°C° 0.3 mm 3 m/s 759 mmHg 90%
    08:00 +28°C° 0.1 mm 4 m/s 759 mmHg 84%
    09:00 +29°C° 0.1 mm 4 m/s 759 mmHg 77%
    10:00 +30°C° 0.1 mm 5 m/s 759 mmHg 70%
    11:00 +32°C° 0.1 mm 5 m/s 758 mmHg 69%
    12:00 +32°C° 0.1 mm 6 m/s 758 mmHg 68%
    13:00 +33°C° 0.1 mm 7 m/s 757 mmHg 66%
    14:00 +32°C° 0.1 mm 7 m/s 757 mmHg 69%
    15:00 +32°C° 0.1 mm 7 m/s 757 mmHg 72%
    16:00 +30°C° 0.1 mm 6 m/s 756 mmHg 75%
    17:00 +29°C° 0.2 mm 6 m/s 757 mmHg 80%
    18:00 +28°C° 0.2 mm 5 m/s 757 mmHg 85%
    19:00 +27°C° 0.2 mm 4 m/s 758 mmHg 89%
    20:00 +27°C° 0.2 mm 4 m/s 758 mmHg 90%
    21:00 +26°C° 0.2 mm 4 m/s 759 mmHg 91%
    22:00 +26°C° 0.2 mm 4 m/s 759 mmHg 92%
    23:00 +26°C° 0.3 mm 4 m/s 759 mmHg 91%
    Voir plus